Location: Unspecified
(0.0000°N, 0.0000°E)
Time: 04:17:00
(UTC+00:00)

STARLINK-1014 - Pass Details

Date: 16 January 2020
Orbit: 549 x 550 km, 53.0° (Epoch: 02 December)

Event Time Altitude Azimuth Distance (km) Brightness Sun altitude
Exits shadow 05:06:46 24° 307° (NW) 1,158 4.7 -14.6°
Drops below altitude 10° 05:10:02 10° 359° (N) 1,822 6.0 -13.9°
Sets 05:12:35 0° 13° (NNE) 2,715 7.1 -13.3°
